�N����,����,�~����,�C��,���x,�C��,����,���ϕ���,�ő�u�ԕ���,�ő厞����,���˗�,�I�_���x,�n�����x,�ő啗���N��,DTYPE
"23/07/18","00:10",0.0,26.3,83.6,1008.6,342.0,1.3,2.1,354.2,0.00,23.3,25.9,"00:00:16",1
"23/07/18","00:20",0.0,26.3,84.0,1008.6,343.4,1.2,2.1,342.8,0.00,23.4,25.9,"00:15:04",1
"23/07/18","00:30",0.0,26.1,84.3,1008.3,347.8,1.2,2.5,350.5,0.00,23.3,25.8,"00:20:02",1
"23/07/18","00:40",0.0,26.1,84.4,1008.3,344.7,1.6,2.7,346.9,0.00,23.3,25.8,"00:34:56",1
"23/07/18","00:50",0.0,26.0,84.8,1008.3,345.2,1.6,2.8,346.0,0.00,23.3,25.7,"00:44:24",1
"23/07/18","01:00",0.0,25.8,85.2,1008.6,341.2,1.5,2.5,345.5,0.00,23.2,25.7,"00:52:24",1
"23/07/18","01:10",0.0,25.7,85.5,1008.3,329.9,1.2,2.1,337.2,0.00,23.1,25.7,"01:01:44",1
"23/07/18","01:20",0.0,25.8,85.4,1008.1,324.4,1.5,3.3,336.5,0.00,23.2,25.7,"01:17:12",1
"23/07/18","01:30",0.0,25.8,85.3,1008.3,330.4,1.3,2.4,326.6,0.00,23.2,25.7,"01:20:40",1
"23/07/18","01:40",0.0,25.7,85.3,1008.3,329.5,1.1,2.2,347.9,0.00,23.1,25.5,"01:31:04",1
"23/07/18","01:50",0.0,25.5,85.5,1008.1,334.2,0.7,1.6,345.9,0.00,22.9,25.7,"01:46:40",1
"23/07/18","02:00",0.0,25.3,85.9,1008.6,350.5,1.0,2.2,352.0,0.00,22.8,25.5,"01:59:36",1
"23/07/18","02:10",0.0,25.3,86.1,1007.8,328.1,1.1,2.2,349.1,0.00,22.8,25.5,"02:00:08",1
"23/07/18","02:20",0.0,25.2,86.5,1008.1,308.5,0.7,1.4,318.1,0.00,22.8,25.7,"02:13:28",1
"23/07/18","02:30",0.0,25.3,86.5,1008.1,328.9,1.7,3.4,334.6,0.00,22.9,25.4,"02:22:56",1
"23/07/18","02:40",0.0,25.4,86.5,1008.3,331.9,1.5,2.6,308.7,0.00,23.0,25.4,"02:31:36",1
"23/07/18","02:50",0.0,25.2,86.7,1008.6,333.2,1.2,2.4,340.9,0.00,22.9,25.5,"02:46:24",1
"23/07/18","03:00",0.0,25.3,86.8,1008.6,329.8,1.8,3.3,339.3,0.00,23.0,25.5,"02:54:08",1
"23/07/18","03:10",0.0,25.2,86.9,1008.3,339.2,1.6,3.5,338.6,0.00,22.9,25.4,"03:08:24",1
"23/07/18","03:20",0.0,25.1,87.1,1008.6,339.2,1.6,3.5,349.1,0.00,22.8,25.2,"03:10:16",1
"23/07/18","03:30",0.0,25.1,87.3,1008.3,332.4,2.0,3.2,335.4,0.00,22.9,25.4,"03:22:08",1
"23/07/18","03:40",0.0,25.0,87.4,1008.3,340.0,1.7,3.9,347.4,0.00,22.8,25.4,"03:32:08",1
"23/07/18","03:50",0.0,24.8,87.7,1008.3,335.8,1.6,2.8,341.2,0.00,22.7,25.3,"03:41:12",1
"23/07/18","04:00",0.0,24.5,88.0,1008.3,335.0,1.2,2.8,344.6,0.00,22.4,25.3,"03:54:48",1
"23/07/18","04:10",0.0,24.3,88.4,1008.8,341.4,1.2,2.5,338.8,0.00,22.3,25.3,"04:03:12",1
"23/07/18","04:20",0.0,24.2,88.8,1008.6,341.0,1.3,2.5,344.3,0.00,22.3,25.2,"04:19:44",1
"23/07/18","04:30",0.0,24.1,89.1,1008.6,340.7,1.6,3.2,342.6,0.00,22.2,25.1,"04:26:00",1
"23/07/18","04:40",0.0,24.0,89.4,1008.8,338.1,1.3,2.1,335.5,0.00,22.2,25.1,"04:38:08",1
"23/07/18","04:50",0.0,23.9,89.6,1008.8,338.5,1.5,2.8,339.0,0.00,22.1,25.2,"04:42:40",1
"23/07/18","05:00",0.0,23.9,89.9,1009.0,322.4,1.5,2.6,321.9,0.00,22.2,25.1,"04:57:44",1
"23/07/18","05:10",0.0,23.9,89.9,1009.0,316.6,1.2,2.6,326.9,0.00,22.2,25.1,"05:00:24",1
"23/07/18","05:20",0.0,23.9,90.0,1009.3,319.2,0.8,1.9,334.2,0.00,22.2,24.9,"05:19:12",1
"23/07/18","05:30",0.0,23.9,90.1,1009.3,338.9,1.2,2.2,341.1,0.00,22.2,25.1,"05:27:36",1
"23/07/18","05:40",0.0,23.9,90.2,1009.3,333.7,1.5,2.5,338.7,0.00,22.2,25.0,"05:35:12",1
"23/07/18","05:50",0.0,24.0,90.2,1009.3,331.1,1.5,2.5,339.0,0.00,22.3,24.9,"05:44:40",1
"23/07/18","06:00",0.0,24.3,90.0,1009.3,340.4,1.5,3.5,347.4,0.02,22.6,25.0,"05:50:24",1
"23/07/18","06:10",0.0,24.9,89.8,1009.0,349.9,1.1,2.5,325.4,0.03,23.1,25.0,"06:01:28",1
"23/07/18","06:20",0.0,25.8,89.1,1009.0,342.1,0.5,1.0,345.8,0.05,23.9,25.0,"06:16:08",1
"23/07/18","06:30",0.0,26.3,87.7,1009.3,354.1,0.7,1.3,324.6,0.06,24.1,24.9,"06:22:56",1
"23/07/18","06:40",0.0,27.2,86.3,1009.0,14.2,0.6,1.2,2.1,0.08,24.8,24.7,"06:31:04",1
"23/07/18","06:50",0.0,27.5,83.4,1008.8,354.3,0.5,1.1,352.4,0.10,24.5,24.8,"06:45:04",1
"23/07/18","07:00",0.0,28.5,80.2,1008.6,22.7,0.3,1.0,10.6,0.12,24.8,24.8,"06:54:16",1
"23/07/18","07:10",0.0,29.0,77.0,1008.3,356.9,0.6,1.2,351.7,0.14,24.6,24.9,"07:04:08",1
"23/07/18","07:20",0.0,29.4,75.0,1008.6,13.9,0.5,1.2,20.0,0.16,24.5,24.7,"07:14:56",1
"23/07/18","07:30",0.0,29.5,73.0,1008.6,23.0,0.6,1.1,21.8,0.15,24.2,24.9,"07:26:24",1
"23/07/18","07:40",0.0,29.9,72.5,1009.0,327.6,0.3,1.1,352.3,0.20,24.5,24.7,"07:32:00",1
"23/07/18","07:50",0.0,30.3,72.2,1009.5,142.1,0.6,1.2,122.4,0.22,24.8,24.9,"07:46:24",1
"23/07/18","08:00",0.0,30.7,69.7,1009.7,119.9,0.5,1.3,78.2,0.25,24.6,24.9,"07:58:08",1
"23/07/18","08:10",0.0,30.9,68.9,1010.0,359.7,1.0,1.9,357.9,0.26,24.6,24.7,"08:02:00",1
"23/07/18","08:20",0.0,31.3,67.3,1010.0,55.6,0.8,1.6,4.9,0.29,24.6,24.7,"08:16:24",1
"23/07/18","08:30",0.0,32.0,66.4,1010.4,95.5,0.6,1.3,125.2,0.31,25.0,24.8,"08:28:08",1
"23/07/18","08:40",0.0,31.9,65.9,1010.4,155.8,0.7,1.9,221.5,0.33,24.8,24.8,"08:37:20",1
"23/07/18","08:50",0.0,32.2,65.9,1010.7,158.7,0.8,1.7,125.8,0.35,25.1,24.8,"08:42:32",1
"23/07/18","09:00",0.0,32.7,64.0,1010.9,46.6,0.8,2.4,355.1,0.37,25.0,24.8,"08:57:12",1
"23/07/18","09:10",0.0,33.1,64.3,1010.9,162.6,0.8,1.9,162.2,0.39,25.5,24.9,"09:06:08",1
"23/07/18","09:20",0.0,33.5,64.0,1011.2,177.7,0.6,1.4,224.4,0.41,25.8,24.9,"09:12:00",1
"23/07/18","09:30",0.0,33.8,60.6,1011.4,158.9,0.7,1.8,202.2,0.43,25.2,25.1,"09:28:48",1
"23/07/18","09:40",0.0,33.6,60.3,1011.2,189.7,1.0,2.6,238.2,0.45,24.9,25.1,"09:34:48",1
"23/07/18","09:50",0.0,34.4,58.8,1010.9,38.6,0.7,1.7,47.8,0.45,25.2,25.2,"09:45:36",1
"23/07/18","10:00",0.0,34.2,60.7,1010.9,184.3,1.2,2.9,190.7,0.44,25.6,25.2,"09:52:08",1
"23/07/18","10:10",0.0,34.0,59.5,1010.7,185.3,1.3,3.3,232.7,0.47,25.0,25.5,"10:01:04",1
"23/07/18","10:20",0.0,34.4,58.0,1010.7,255.2,0.8,1.9,244.6,0.43,25.0,25.3,"10:14:32",1
"23/07/18","10:30",0.0,34.4,58.1,1010.2,211.8,0.7,2.0,340.5,0.33,25.0,25.5,"10:28:48",1
"23/07/18","10:40",0.0,34.6,58.8,1010.0,318.8,0.6,1.3,355.8,0.41,25.4,25.4,"10:30:24",1
"23/07/18","10:50",0.0,35.1,56.4,1010.2,232.0,0.8,2.4,211.3,0.53,25.2,25.4,"10:44:40",1
"23/07/18","11:00",0.0,35.3,57.2,1010.0,205.2,1.2,3.6,211.5,0.55,25.6,25.6,"10:52:16",1
"23/07/18","11:10",0.0,35.6,55.1,1010.4,197.9,1.1,3.1,214.9,0.57,25.2,25.9,"11:09:52",1
"23/07/18","11:20",0.0,35.7,56.7,1010.0,294.6,1.3,3.2,225.0,0.59,25.8,25.8,"11:11:04",1
"23/07/18","11:30",0.0,35.6,54.7,1010.2,179.1,1.6,2.9,230.4,0.58,25.1,25.8,"11:26:32",1
"23/07/18","11:40",0.0,35.3,56.2,1009.7,187.9,1.3,2.7,229.8,0.42,25.3,26.1,"11:31:52",1
"23/07/18","11:50",0.0,35.7,54.2,1009.7,124.9,0.6,1.6,128.9,0.38,25.0,26.1,"11:47:28",1
"23/07/18","12:00",0.0,35.8,57.9,1009.5,193.9,0.7,1.8,229.8,0.27,26.3,26.2,"11:51:36",1
"23/07/18","12:10",0.0,34.9,56.9,1009.3,247.9,1.3,3.3,257.2,0.27,25.1,26.2,"12:06:08",1
"23/07/18","12:20",0.0,34.3,60.5,1009.0,225.3,1.5,3.4,224.0,0.21,25.6,26.3,"12:14:48",1
"23/07/18","12:30",0.0,34.9,59.0,1008.6,266.3,1.2,3.3,223.9,0.32,25.7,26.3,"12:24:40",1
"23/07/18","12:40",0.0,34.6,57.5,1008.3,316.2,1.3,3.2,340.5,0.25,25.0,26.5,"12:35:12",1
"23/07/18","12:50",0.0,34.7,58.2,1008.3,337.4,1.0,2.7,335.2,0.24,25.3,26.3,"12:44:48",1
"23/07/18","13:00",0.0,35.6,56.8,1008.1,311.7,0.7,1.9,347.8,0.46,25.7,26.4,"12:54:08",1
"23/07/18","13:10",0.0,36.4,54.8,1008.6,139.3,0.8,1.8,322.9,0.39,25.9,26.6,"13:03:20",1
"23/07/18","13:20",0.0,35.2,58.5,1008.3,111.2,0.7,2.0,134.0,0.13,25.9,26.4,"13:15:44",1
"23/07/18","13:30",0.0,34.8,59.6,1007.8,27.4,0.7,2.4,57.8,0.12,25.8,26.5,"13:21:36",1
"23/07/18","13:40",0.0,34.4,60.3,1007.6,9.2,0.6,1.4,7.0,0.11,25.6,26.6,"13:32:24",1
"23/07/18","13:50",0.0,34.1,60.2,1007.1,347.2,0.6,1.4,342.9,0.13,25.3,26.7,"13:44:08",1
"23/07/18","14:00",0.0,34.7,57.9,1006.9,13.8,0.6,1.4,354.3,0.20,25.2,26.7,"13:50:16",1
"23/07/18","14:10",0.0,34.8,59.9,1006.7,54.5,0.6,1.9,1.6,0.14,25.9,26.7,"14:09:36",1
"23/07/18","14:20",0.0,34.3,60.1,1006.7,339.3,0.8,2.8,343.4,0.13,25.5,26.6,"14:11:12",1
"23/07/18","14:30",0.0,34.3,58.3,1006.7,3.8,0.6,1.4,332.9,0.15,25.0,26.6,"14:29:04",1
"23/07/18","14:40",0.0,35.4,55.1,1006.7,349.8,0.6,1.6,6.5,0.37,25.0,26.8,"14:36:40",1
"23/07/18","14:50",0.0,36.8,53.5,1007.1,115.3,0.6,1.3,113.7,0.35,25.8,26.5,"14:46:08",1
"23/07/18","15:00",0.0,35.4,55.4,1007.1,121.9,1.0,2.0,141.4,0.15,25.1,26.8,"14:56:00",1
"23/07/18","15:10",0.0,35.1,58.7,1006.9,121.1,1.0,2.5,145.4,0.22,25.8,26.7,"15:02:48",1
"23/07/18","15:20",0.0,35.1,57.7,1007.1,85.9,0.7,1.6,346.1,0.18,25.5,26.8,"15:18:24",1
"23/07/18","15:30",0.0,34.5,58.8,1006.7,48.9,0.7,1.7,11.4,0.08,25.3,26.8,"15:29:52",1
"23/07/18","15:40",0.0,34.7,60.7,1006.2,42.7,0.6,1.9,46.4,0.18,26.0,26.8,"15:31:36",1
"23/07/18","15:50",0.0,35.7,58.8,1006.4,35.0,0.6,1.7,13.6,0.30,26.4,26.8,"15:42:16",1
"23/07/18","16:00",0.0,36.1,54.6,1006.4,23.9,0.8,2.0,2.0,0.28,25.5,26.8,"15:59:44",1
"23/07/18","16:10",0.0,36.2,55.0,1006.7,353.3,0.8,2.1,357.7,0.19,25.8,26.9,"16:03:20",1
"23/07/18","16:20",0.0,34.6,58.7,1006.2,299.3,0.5,2.0,338.5,0.06,25.4,26.9,"16:10:08",1
"23/07/18","16:30",0.0,33.9,59.1,1006.0,234.2,0.3,1.6,13.9,0.05,24.8,26.7,"16:28:16",1
"23/07/18","16:40",0.0,34.9,61.8,1006.0,333.2,0.7,1.4,334.3,0.21,26.5,26.9,"16:33:28",1
"23/07/18","16:50",0.0,35.0,61.0,1005.7,344.3,1.0,2.2,345.1,0.16,26.4,27.1,"16:45:20",1
"23/07/18","17:00",0.0,34.6,59.2,1005.7,7.5,0.7,1.8,341.8,0.13,25.5,26.9,"16:58:24",1
"23/07/18","17:10",0.0,34.6,59.5,1005.7,340.3,0.5,1.2,336.8,0.07,25.6,26.9,"17:01:04",1
"23/07/18","17:20",0.0,34.3,59.1,1005.7,63.5,0.7,2.9,127.5,0.05,25.2,26.8,"17:17:44",1
"23/07/18","17:30",0.0,34.2,59.3,1006.0,103.1,0.5,1.2,112.2,0.03,25.2,27.0,"17:20:08",1
"23/07/18","17:40",0.0,33.9,61.1,1005.2,17.6,0.5,1.4,75.1,0.02,25.4,27.0,"17:32:08",1
"23/07/18","17:50",0.0,33.4,64.1,1004.8,24.2,0.5,1.6,340.8,0.00,25.7,26.8,"17:49:36",1
"23/07/18","18:00",0.0,32.5,67.7,1004.1,350.7,0.8,1.4,346.4,0.00,25.8,27.1,"17:50:48",1
"23/07/18","18:10",0.0,31.9,70.0,1003.8,338.2,0.7,1.1,344.6,0.00,25.8,27.0,"18:01:28",1
"23/07/18","18:20",0.0,31.5,70.9,1003.8,290.0,0.3,0.9,345.4,0.00,25.6,27.0,"18:11:28",1
"23/07/18","18:30",0.0,31.4,72.4,1004.1,42.3,0.3,1.6,315.3,0.00,25.9,26.9,"18:22:08",1
"23/07/18","18:40",0.0,30.8,73.0,1003.6,3.1,0.6,1.4,16.5,0.00,25.4,26.8,"18:38:32",1
"23/07/18","18:50",0.0,30.1,73.8,1003.6,347.0,0.6,1.3,315.4,0.00,24.9,26.8,"18:42:24",1
"23/07/18","19:00",0.0,29.7,74.3,1003.1,259.9,0.3,0.9,307.2,0.00,24.7,26.7,"18:58:56",1
"23/07/18","19:10",0.0,29.4,74.5,1003.1,330.4,0.7,1.4,341.5,0.00,24.4,26.7,"19:06:00",1
"23/07/18","19:20",0.0,29.4,74.3,1003.1,335.9,1.0,1.8,333.5,0.00,24.4,26.7,"19:19:12",1
"23/07/18","19:30",0.0,29.5,73.3,1002.9,318.7,1.0,2.2,311.0,0.00,24.3,26.7,"19:23:20",1
"23/07/18","19:40",0.0,29.3,73.8,1003.4,320.7,0.8,2.0,310.2,0.00,24.2,26.8,"19:31:28",1
"23/07/18","19:50",0.0,29.1,74.0,1003.6,301.1,1.0,1.8,299.6,0.00,24.0,26.5,"19:44:08",1
"23/07/18","20:00",0.0,29.1,74.0,1003.4,274.8,1.0,2.5,241.6,0.00,24.0,26.6,"19:53:20",1
"23/07/18","20:10",0.0,29.0,74.0,1003.4,320.4,1.1,2.1,336.4,0.00,23.9,26.6,"20:04:48",1
"23/07/18","20:20",0.0,28.9,74.3,1003.8,327.8,1.6,3.2,342.9,0.00,23.9,26.4,"20:17:20",1
"23/07/18","20:30",0.0,28.7,74.8,1003.6,324.3,1.7,2.4,332.5,0.00,23.8,26.5,"20:25:12",1
"23/07/18","20:40",0.0,28.4,75.7,1004.1,311.8,1.1,2.1,318.5,0.00,23.7,26.4,"20:38:16",1
"23/07/18","20:50",0.0,28.1,76.5,1003.8,283.8,0.7,1.7,333.8,0.00,23.6,26.4,"20:48:32",1
"23/07/18","21:00",0.0,28.1,77.0,1004.1,300.4,1.0,2.6,309.9,0.00,23.7,26.5,"20:54:08",1
"23/07/18","21:10",0.0,27.8,77.6,1004.3,295.3,0.6,1.2,327.3,0.00,23.6,26.3,"21:08:08",1
"23/07/18","21:20",0.0,27.6,78.5,1003.8,323.3,0.6,1.4,328.5,0.00,23.6,26.3,"21:17:04",1
"23/07/18","21:30",0.0,27.4,79.7,1003.8,329.5,1.0,1.6,342.0,0.00,23.6,26.3,"21:26:56",1
"23/07/18","21:40",0.0,27.1,81.1,1003.8,331.0,0.8,1.3,4.7,0.00,23.6,26.1,"21:32:00",1
"23/07/18","21:50",0.0,26.8,81.9,1004.1,298.5,1.0,1.9,334.4,0.00,23.5,26.2,"21:42:32",1
"23/07/18","22:00",0.0,26.8,82.2,1004.1,319.9,0.7,1.4,322.8,0.00,23.5,26.3,"21:52:40",1
"23/07/18","22:10",0.0,26.6,82.6,1003.8,288.7,0.5,1.0,335.8,0.00,23.4,26.2,"22:08:56",1
"23/07/18","22:20",0.0,26.5,83.4,1004.1,323.3,1.3,3.1,347.9,0.00,23.5,26.1,"22:16:32",1
"23/07/18","22:30",0.0,26.5,83.6,1004.1,315.6,0.7,1.6,331.0,0.00,23.5,26.1,"22:20:08",1
"23/07/18","22:40",0.0,26.5,83.7,1003.8,320.1,1.0,2.4,314.1,0.00,23.6,25.9,"22:38:24",1
"23/07/18","22:50",0.0,26.4,83.8,1003.8,312.9,0.8,1.8,313.4,0.00,23.5,26.0,"22:49:12",1
"23/07/18","23:00",0.0,26.4,83.9,1004.1,325.3,1.0,1.4,331.8,0.00,23.5,26.0,"22:56:32",1
"23/07/18","23:10",0.0,26.3,84.1,1004.1,313.3,0.8,1.2,312.3,0.00,23.4,25.8,"23:01:36",1
"23/07/18","23:20",0.0,26.2,84.3,1003.8,287.1,0.7,1.2,293.2,0.00,23.4,25.8,"23:11:28",1
"23/07/18","23:30",0.0,26.0,84.6,1003.8,324.2,0.5,0.9,310.0,0.00,23.2,26.0,"23:26:24",1
"23/07/18","23:40",0.0,25.8,85.0,1003.8,324.6,0.7,1.1,340.0,0.00,23.1,25.9,"23:33:12",1
"23/07/18","23:50",0.0,25.5,85.8,1003.6,316.6,0.7,1.2,343.3,0.00,23.0,25.9,"23:41:52",1
"23/07/18","24:00",0.0,25.4,86.3,1003.6,315.9,0.6,1.2,321.1,0.00,23.0,25.8,"23:53:12",1
